Flag for Germany Weather past 2 weeks in Rodgau, Hesse, Germany

Now
58 °F

Passing clouds.


Feels Like: 58 °F
Forecast: 57 / 74 °F
Wind: 3 mph from Northeast

Location: Frankfurt / M-Flughafen

Current Time: Sep 17, 2014 at 5:41:13 AM

Latest Report: Sep 17, 2014 at 4:00 AM


Visibility: 11 mi

Pressure: 29.94 "Hg

Humidity: 94%

Dew point: 56 °F

Location of RodgauLocation

Historic Weather in Rodgau — Graph

°F

Rodgau temperature yesterday

Maximum temperature yesterday: 75 °F (at 4:00 PM)
Minimum temperature yesterday: 58 °F (at 7:00 AM)
Average temperature yesterday: 65 °F

Past Weeks' High & Low Weather Summary

 TemperatureHumidityPressure
High79 °F (Sep 6, 4:00 PM)97% (Sep 6, 7:00 AM)30.20 "Hg (Sep 6, 7:00 AM)
Low47 °F (Sep 11, 4:00 AM)43% (Sep 9, 6:00 PM)29.85 "Hg (Sep 6, 6:00 PM)
Average63 °F77%30.05 "Hg
* Reported Sep 2 4:00 AM — Sep 17 4:00 AM, Rodgau, Weather by CustomWeather, © 2014

Note: Actual official high and low records may vary slightly from our data, if they occured in-between our weather recording intervals... More about our weather records

Advertising

Rodgau weather history for previous 24 hours

 ConditionsComfort  
Time TempWeatherWind HumidityBarometerVisibility
4:00 AM
Sep 17
58 °FPassing clouds.3 mph94%29.94 "Hg11 mi
3:00 AM58 °FClear.2 mph93%29.95 "Hg11 mi
2:00 AM58 °FClear.2 mph92%29.96 "Hg12 mi
1:00 AM59 °FClear.2 mph92%29.96 "Hg16 mi
12:00 AM59 °FPassing clouds.1 mph89%29.97 "Hg19 mi
11:00 PM
Sep 16
61 °FClear.2 mph86%29.96 "Hg22 mi
10:00 PM62 °FClear.2 mph84%29.96 "Hg25 mi
9:00 PM65 °FClear.1 mph76%29.96 "Hg31 mi
8:00 PM68 °FPassing clouds.2 mph69%29.95 "Hg31 mi
7:00 PM73 °FPassing clouds.1 mph58%29.95 "Hg31 mi
6:00 PM74 °FPassing clouds.2 mph53%29.94 "Hg28 mi
5:00 PM74 °FPassing clouds.2 mph54%29.94 "Hg28 mi
4:00 PM75 °FScattered clouds.3 mph55%29.95 "Hg25 mi
3:00 PM74 °FScattered clouds.2 mph59%29.96 "Hg25 mi
2:00 PM73 °FPassing clouds.3 mph59%29.97 "Hg22 mi
1:00 PM71 °FPartly sunny.2 mph65%29.99 "Hg14 mi
12:00 PM69 °FPartly sunny.2 mph70%30.00 "Hg11 mi
11:00 AM65 °FPartly sunny.2 mph78%30.01 "Hg11 mi
10:00 AM63 °FPartly sunny.5 mph84%30.01 "Hg9 mi
9:00 AM60 °FPartly sunny.3 mph90%30.00 "Hg8 mi
8:00 AM58 °FPartly sunny.2 mph92%30.00 "Hg8 mi
7:00 AM58 °FPassing clouds.2 mph93%30.01 "Hg9 mi
6:00 AM58 °FPassing clouds.2 mph94%29.99 "Hg9 mi
Weather by CustomWeather, © 2014

See weather overviewHow to use our weather pages